Location: Boss Branch
(32.3799°N, 97.2508°W)
Time: 18:51:50
(UTC+00:00)

ISS - Visible Passes

Search period start: 07 December 2025 00:00
Search period end: 17 December 2025 00:00
Orbit: 416 x 421 km, 51.6° (Epoch: 07 December)

Date Brightness Start Highest point End Pass type
(mag) Time Alt. Az. Time Alt. Az. Time Alt. Az.
11 Dec -1.6 12:19:55 10° SSW 12:22:54 30° SE 12:25:53 10° ENE visible
12 Dec -0.6 11:33:00 10° SSE 11:35:07 16° SE 11:37:14 10° E visible
13 Dec -3.8 12:20:19 10° SW 12:23:39 68° NW 12:27:01 10° NE visible
14 Dec -3.3 11:35:36 58° SE 11:35:43 58° SE 11:39:01 10° NE visible
15 Dec -2.4 12:23:52 20° NW 12:24:34 22° NW 12:27:15 10° NNE visible
16 Dec -1.5 11:38:40 16° NNE 11:38:40 16° NNE 11:39:35 10° NNE visible
